PDT,Max TemperatureF,Mean TemperatureF,Min TemperatureF,Max Dew PointF,MeanDew PointF,Min DewpointF,Max Humidity, Mean Humidity, Min Humidity, Max Sea Level PressureIn, Mean Sea Level PressureIn, Min Sea Level PressureIn, Max VisibilityMiles, Mean VisibilityMiles, Min VisibilityMiles, Max Wind SpeedMPH, Mean Wind SpeedMPH, Max Gust SpeedMPH,PrecipitationIn, CloudCover, Events, WindDirDegrees
2012-9-1,77,61,45,49,45,37,100,63,25,30.14,30.10,30.02,10,10,10,12,4,17,0.00,0,,344
2012-9-2,79,62,45,51,46,39,100,63,25,30.19,30.14,30.07,10,10,10,13,5,17,0.00,0,,359
2012-9-3,81,65,49,53,50,46,96,63,30,30.13,30.09,30.03,10,10,10,17,7,23,0.00,0,,1
2012-9-4,86,68,50,52,50,48,93,61,29,30.14,30.08,30.00,10,10,10,16,5,26,0.00,0,,4
2012-9-5,88,70,52,54,52,50,93,61,28,30.03,29.96,29.87,10,10,10,9,3,,0.00,0,,1
2012-9-6,89,70,50,54,51,49,93,59,24,29.96,29.93,29.90,10,10,10,14,3,24,0.00,0,,343
2012-9-7,95,74,53,52,49,45,89,53,17,30.06,30.00,29.94,10,10,10,10,4,14,0.00,0,,345
2012-9-8,76,64,52,55,52,47,93,71,49,30.04,30.01,29.97,10,10,10,12,5,15,0.00,1,,207
2012-9-9,71,60,49,54,49,46,93,70,47,30.08,30.05,30.03,10,10,10,13,6,17,0.00,7,,182
2012-9-10,70,62,54,55,50,41,93,65,37,30.21,30.14,30.06,10,10,4,15,6,17,0.02,6,Rain,55
2012-9-11,74,58,42,44,41,36,92,60,27,30.25,30.20,30.13,10,10,10,18,8,23,0.00,0,,5
2012-9-12,87,67,47,43,38,32,82,49,15,30.20,30.14,30.06,10,10,10,21,8,25,0.00,0,,358
2012-9-13,91,69,47,47,39,35,66,40,14,30.10,30.06,29.99,10,10,10,9,3,13,0.00,0,,355
2012-9-14,89,70,51,47,45,44,77,49,21,30.06,30.02,29.96,10,10,10,10,2,25,0.00,0,,296
2012-9-15,84,66,48,51,49,47,89,60,30,30.14,30.10,30.06,10,10,10,15,4,18,0.00,0,,353
2012-9-16,82,65,47,52,46,42,86,56,26,30.18,30.09,30.02,10,10,10,12,4,17,0.00,0,,2
2012-9-17,89,69,49,52,48,43,93,57,21,30.05,30.00,29.94,10,10,10,8,2,10,0.00,0,,9
2012-9-18,86,67,47,52,48,44,93,60,27,30.08,30.02,29.97,10,10,10,10,2,13,0.00,0,,291
2012-9-19,77,62,47,54,50,46,93,70,46,30.14,30.09,30.03,10,10,9,8,2,14,0.00,0,,68
2012-9-20,70,59,48,54,51,46,96,77,57,30.12,30.09,30.05,10,10,7,12,3,16,0.00,5,,227
2012-9-21,63,59,54,56,54,52,100,86,72,30.16,30.13,30.11,10,8,2,8,3,26,0.01,8,Rain,351
2012-9-22,72,60,48,53,49,45,100,70,40,30.18,30.13,30.09,10,10,10,9,2,16,0.00,2,,347
2012-9-23,75,63,51,54,50,46,100,69,38,30.13,30.10,30.07,10,10,10,10,3,16,0.01,2,,3
2012-9-24,74,61,48,54,50,47,100,72,44,30.14,30.10,30.06,10,10,10,10,2,13,0.00,2,,351
2012-9-25,75,64,52,54,48,38,89,58,27,30.12,30.09,30.04,10,10,10,13,6,16,0.00,3,,339
2012-9-26,72,58,43,50,47,43,100,69,38,30.09,30.04,29.97,10,9,5,12,4,16,0.00,3,,349
2012-9-27,80,63,45,53,49,44,100,68,35,30.01,29.95,29.87,10,10,10,10,2,15,0.00,0,,27
2012-9-28,84,71,57,54,51,45,86,56,26,30.00,29.94,29.90,10,10,10,8,2,12,0.00,0,,25
2012-9-29,76,64,52,57,52,42,86,64,41,30.25,30.14,30.01,10,10,10,13,6,,0.00,1,,356
2012-9-30,76,59,42,46,42,39,86,59,31,30.34,30.28,30.25,10,10,10,17,6,20,0.00,0,,6